Weather Roundup
Issued by NWS Springfield, MO

Home | Current Version | Previous Version | Text Only | Print | Product List | Glossary On
Versions: 1 2 3 4 5 6 7 8 9 10 11 12 13 14 15 16 17 18 19 20 21 22 23 24 25 26 27 28 29 30 31 32 33 34 35 36 37 38 39 40 41 42 43 44 45 46 47 48 49 50
000
NZUS99 KSGF 161957
HRRSGF

HOURLY WEATHER
NATIONAL WEATHER SERVICE SPRINGFIELD MO
200 PM CST SAT DEC 16 2017

......SGF CWA......

CITY           SKY/WX    TMP DP  RH WIND       PRES   REMARKS
SPRINGFIELD    CLOUDY    57  24  28 SW18G29   29.98F
JOPLIN         SUNNY     57  27  31 S21G26    29.95F
WEST PLAINS    SUNNY     57  24  28 SW15      30.03F
ROLLA          SUNNY     61  26  26 SW15G28   29.96F
BRANSON        MOSUNNY   57  19  23 SW13G21   30.02F

......SURROUNDING SGF CWA......

CITY           SKY/WX    TMP DP  RH WIND       PRES   REMARKS
CHANUTE        SUNNY     59  26  28 S18G28    29.90F
PARSONS        SUNNY     60  26  27 S15G21    29.92F
COFFEYVILLE    SUNNY     59  26  28 S21G26    29.93F
EMPORIA        SUNNY     60  27  28 S18       29.84F
HARRISON AR    SUNNY     59  20  22 SW10      30.01F

......KANSAS AND MISSOURI......

CITY           SKY/WX    TMP DP  RH WIND       PRES   REMARKS
KANSAS CTY INT MOSUNNY   56  28  34 SW12      29.86F
ST JOSEPH      SUNNY     56  29  35 SW10      29.85F
ST LOUIS       MOSUNNY   60  27  28 SW17      29.95F
WICHITA        SUNNY     60  28  29 S23       29.82F
TOPEKA         SUNNY     59  29  31 S10       29.84F
OLATHE         SUNNY     58  28  32 S15G22    29.87F

......TENNESSEE......

CITY           SKY/WX    TMP DP  RH WIND       PRES   REMARKS
MEMPHIS        NOT AVBL
NASHVILLE      PTSUNNY   52  28  39 S10       30.18F

......ARKANSAS.......

CITY           SKY/WX    TMP DP  RH WIND       PRES   REMARKS
FAYETTEVILLE   SUNNY     56  26  31 S16       30.01F
FT SMITH       SUNNY     60  26  27 S12       30.04F
LITTLE ROCK    CLOUDY    54  29  38 S12       30.13F

......OKLAHOMA.......

CITY           SKY/WX    TMP DP  RH WIND       PRES   REMARKS
TULSA          MOSUNNY   62  24  23 S22       29.95F
PONCA CITY     SUNNY     61  25  25 SW21G33   29.89F
MCALESTER      SUNNY     61  29  29 S7G18     30.02F
OKLAHOMA CITY  MOSUNNY   60  24  25 S22G32    29.92F

......IOWA............

CITY           SKY/WX    TMP DP  RH WIND       PRES   REMARKS
DES MOINES     NOT AVBL
QUAD CITIES    SUNNY     52  27  38 W7        29.86R

......ILLINOIS........

CITY           SKY/WX    TMP DP  RH WIND       PRES   REMARKS
QUINCY         NOT AVBL
CHICAGO        MOSUNNY   46  26  45 SW6       29.88S




USA.gov is the U.S. government's official web portal to all federal, state and local government web resources and services.